Regional Weather Roundup
Issued by NWS

Home | Current Version | Previous Version | Text Only | Print | Product List | Glossary On
Versions: 1 2 3 4 5 6 7 8 9 10 11 12 13 14 15 16 17 18 19 20 21 22 23 24 25 26 27 28 29 30 31 32 33 34 35 36 37 38 39 40 41 42 43 44 45 46 47 48 49 50
096
ASUS43 KOAX 230502
RWRNE

WEATHER ROUNDUP FOR NEBRASKA
NATIONAL WEATHER SERVICE OMAHA NE
1100 PM CST WED FEB 22 2017

NOTES: SATELLITE DATA IS BEING USED TO AUGMENT CLOUD COVER ABOVE
       12000 FEET.
       "FAIR" INDICATES FEW OR NO CLOUDS BELOW 12,000 FEET WITH NO
       SIGNIFICANT WEATHER AND/OR OBSTRUCTIONS TO VISIBILITY.

  * THESE STATIONS DO NOT REPORT WEATHER SUCH AS RAIN...SNOW OR FOG.

NEZ001>004-019>022-054>056-230600-
NEBRASKA PANHANDLE

CITY           SKY/WX    TMP DP  RH WIND       PRES   REMARKS
SCOTTSBLUFF    LGT RAIN  39  32  76 NE17      29.81R WCI  30
ALLIANCE       CLOUDY    37  30  75 NE15      29.80F WCI  28
CHADRON        CLOUDY    35  28  75 NE15      29.88F WCI  25
KIMBALL        CLOUDY    39  26  58 N8        29.78F WCI  34
SIDNEY         CLOUDY    41  19  41 N14       29.77F
$$

NEZ057>060-069>072-079>082-230600-
SOUTHWEST NEBRASKA

CITY           SKY/WX    TMP DP  RH WIND       PRES   REMARKS
NORTH PLATTE   CLEAR     42  29  59 NE20G28   29.76F
IMPERIAL       CLEAR     39  21  48 NE9       29.72F WCI  33
LEXINGTON      CLEAR     42  30  63 E8        29.76S
MCCOOK         CLEAR     40  24  53 NE10      29.72F WCI  33
OGALLALA       PTCLDY    44  32  64 NE23G29   29.76F
$$

NEZ005>010-023>029-035>040-094-230600-
NORTH CENTRAL NEBRASKA

CITY           SKY/WX    TMP DP  RH WIND       PRES   REMARKS
VALENTINE      CLOUDY    35  29  78 N10       29.89F WCI  27
AINSWORTH      CLOUDY    35  33  92 N14G20    29.88F WCI  26
BROKEN BOW     CLEAR     43  32  65 N15G24    29.78F
O`NEILL        CLOUDY    41  39  93 N13G20    29.87S
ORD            PTCLDY    43  34  70 N14       29.80S
THEDFORD       MOCLDY    38  35  87 NE13G18   29.83F WCI  30
$$

NEZ041-046>049-061>064-073>077-083>087-230600-
SOUTH CENTRAL NEBRASKA

CITY           SKY/WX    TMP DP  RH WIND       PRES   REMARKS
GRAND ISLAND   CLEAR     40  32  73 NE9       29.78F WCI  34
AURORA         CLEAR     39  32  75 NE9       29.77F WCI  33
HASTINGS       CLEAR     45  31  58 NE12      29.77S
HEBRON         CLEAR     46  33  59 NE6       29.76R
HOLDREGE       CLEAR     39  28  64 NE10      29.75S WCI  33
KEARNEY *      CLEAR     39  27  60 NE8       29.77S WCI  34
YORK           CLEAR     41  32  70 NE12      29.78F
$$

NEZ011>018-030>034-042>045-230600-
NORTHEAST NEBRASKA

CITY           SKY/WX    TMP DP  RH WIND       PRES   REMARKS
NORFOLK        CLOUDY    43  37  79 N13       29.81R
ALBION         PTCLDY    46  36  68 N10G16    29.81R
BLAIR          CLEAR     48  40  74 N12       29.80S
FREMONT        CLEAR     46  38  76 N3        29.81S
TEKAMAH        CLEAR     43  38  82 N7        29.81R
WAYNE          CLEAR     41  38  87 N10       29.83S
$$

NEZ050>053-065>068-078-088>093-230600-
SOUTHEAST NEBRASKA

CITY           SKY/WX    TMP DP  RH WIND       PRES   REMARKS
LINCOLN        CLEAR     43  35  73 N10       29.78F
OMAHA EPPLEY   CLEAR     43  36  76 N7        29.80R
BEATRICE       CLEAR     50  36  57 NE12G17   29.75F
FALLS CITY     CLEAR     54  37  52 N12G18    29.74R
NEBRASKA CITY  CLEAR     50  33  51 NE10      29.78R
PLATTSMOUTH    PTCLDY    50  35  57 N8        29.79R
$$

NEZ044-045-051>053-067-230600-
OMAHA AREA

CITY           SKY/WX    TMP DP  RH WIND       PRES   REMARKS
OMAHA EPPLEY   CLEAR     43  36  76 N7        29.80R
BLAIR          CLEAR     48  40  74 N12       29.80S
FREMONT        CLEAR     46  38  76 N3        29.81S
MILLARD        CLEAR     53  42  66 N3        29.80R
OFFUTT AFB     CLEAR     51  38  61 N9        29.79R
PLATTSMOUTH    PTCLDY    50  35  57 N8        29.79R
WAHOO          FAIR      40  35  80 N10       29.79F WCI  34
$$




USA.gov is the U.S. government's official web portal to all federal, state and local government web resources and services.